Flag for Poland Weather past 2 weeks in Częstochowa, Poland

Now
48 °F

Passing clouds.


Feels Like: 48 °F
Forecast: 52 / 64 °F
Wind: 1 mph from North

Location: Katowice Airport

Current Time: May 25, 2015 at 4:08:02 AM

Latest Report: May 25, 2015 at 3:30 AM


Visibility: 4 mi

Pressure: 30.01 "Hg

Humidity: 100%

Dew point: 48 °F

Location of CzęstochowaLocation

Historic Weather in Częstochowa — Graph

°F

Częstochowa temperature yesterday

Maximum temperature yesterday: 59 °F (at 3:30 PM)
Minimum temperature yesterday: 48 °F (at 4:30 AM)
Average temperature yesterday: 53 °F

Past Weeks' High & Low Weather Summary

 TemperatureHumidityPressure
High75 °F (May 19, 1:00 PM)100% (May 20, 4:30 AM)30.39 "Hg (May 20, 4:30 AM)
Low34 °F (May 15, 3:30 AM)25% (May 12, 2:30 PM)29.74 "Hg (May 14, 6:00 AM)
Average55 °F71%30.04 "Hg
* Reported May 10 3:00 AM — May 25 3:00 AM, Częstochowa, Weather by CustomWeather, © 2015

Note: Actual official high and low records may vary slightly from our data, if they occured in-between our weather recording intervals... More about our weather records

Advertising

Częstochowa weather history for previous 24 hours

 ConditionsComfort  
Time TempWeatherWind HumidityBarometerVisibility
3:00 AM
Mon, May 25
46 °FFog.1 mph100%30.01 "Hg3 mi
2:30 AM46 °FFog.No wind100%30.01 "Hg1 mi
2:00 AM50 °FCool.No wind94%30.04 "Hg1 mi
1:30 AM50 °FCool.No wind94%30.01 "Hg1 mi
1:00 AM52 °FCool.No wind94%30.04 "Hg1 mi
12:30 AM52 °FClear.No wind94%30.04 "Hg4 mi
12:00 AM52 °FPassing clouds.No wind100%30.04 "HgN/A
11:30 PM
Sun, May 24
54 °FPassing clouds.No wind94%30.04 "HgN/A
11:00 PM54 °FClear.1 mph94%30.07 "Hg10 mi
10:30 PM54 °FClear.2 mph94%30.07 "Hg10 mi
10:00 PM55 °FClear.2 mph88%30.07 "Hg10 mi
9:30 PM55 °FSunny.2 mph88%30.07 "Hg10 mi
9:00 PM57 °FSunny.2 mph77%30.04 "Hg10 mi
8:30 PM57 °FSunny.3 mph82%30.07 "Hg10 mi
8:00 PM57 °FSunny.5 mph82%30.04 "Hg10 mi
7:30 PM57 °FSunny.6 mph77%30.04 "Hg10 mi
7:00 PM59 °FSunny.7 mph72%30.04 "Hg10 mi
6:30 PM59 °FPassing clouds.8 mph72%30.07 "HgN/A
6:00 PM59 °FPartly sunny.7 mph72%30.07 "HgN/A
5:30 PM59 °FBroken clouds.9 mph72%30.07 "HgN/A
5:00 PM59 °FPartly sunny.9 mph68%30.07 "HgN/A
4:30 PM59 °FPartly sunny.9 mph72%30.07 "HgN/A
4:00 PM59 °FPartly sunny.6 mph72%30.07 "HgN/A
3:30 PM59 °FScattered clouds.7 mph72%30.09 "HgN/A
3:00 PM57 °FScattered clouds.8 mph77%30.09 "HgN/A
2:30 PM55 °FScattered clouds.6 mph88%30.09 "HgN/A
2:00 PM55 °FLight rain. Partly sunny.8 mph88%30.09 "HgN/A
1:30 PM55 °FScattered clouds.8 mph82%30.09 "HgN/A
1:00 PM54 °FScattered clouds.9 mph82%30.09 "HgN/A
12:30 PM54 °FPartly sunny.8 mph88%30.09 "HgN/A
12:00 PM54 °FPartly sunny.8 mph82%30.09 "HgN/A
11:30 AM54 °FPartly sunny.9 mph88%30.09 "HgN/A
11:00 AM52 °FPartly sunny.10 mph88%30.09 "HgN/A
10:30 AM52 °FPartly sunny.10 mph88%30.09 "HgN/A
10:00 AM52 °FDrizzle. Broken clouds.10 mph88%30.09 "HgN/A
9:30 AM52 °FDrizzle. Broken clouds.9 mph94%30.07 "HgN/A
9:00 AM52 °FLight rain. Broken clouds.10 mph94%30.07 "HgN/A
8:30 AM50 °FLight rain. Partly sunny.7 mph94%30.07 "HgN/A
8:00 AM50 °FLight rain. Partly sunny.8 mph94%30.07 "Hg5 mi
7:30 AM50 °FLight rain. Partly sunny.8 mph94%30.07 "Hg5 mi
7:00 AM48 °FLight rain. Broken clouds.8 mph100%30.04 "Hg5 mi
6:30 AM48 °FLight rain. Partly sunny.7 mph100%30.04 "Hg5 mi
6:00 AM48 °FLight rain. Mostly cloudy.6 mph100%30.04 "Hg4 mi
5:30 AM48 °FLight rain. Fog.6 mph100%30.04 "Hg2 mi
5:00 AM48 °FLight rain. Fog.5 mph100%30.04 "Hg2 mi
4:30 AM48 °FLight rain. Fog.6 mph100%30.04 "Hg2 mi
4:00 AM50 °FLight rain. Fog.6 mph94%30.04 "Hg3 mi
Weather by CustomWeather, © 2015

See weather overviewHow to use our weather pages